timestamp,surface_pressure_avg,surface_temp_avg,battery_voltage,lat,long
2022-07-20 00:09:00+00:00,240.2281,18.72,12.01,47.84626,-54.09684
2022-07-20 00:19:00+00:00,241.7964,18.72,12.01,47.84626,-54.09684
2022-07-20 00:29:00+00:00,246.3264,18.7,12.01,47.84626,-54.09684
2022-07-20 00:39:00+00:00,252.9198,18.7,12.01,47.84626,-54.09684
2022-07-20 00:49:00+00:00,254.7431,18.77,12.01,47.84626,-54.09684
2022-07-20 00:59:00+00:00,256.0564,18.8,12.01,47.84626,-54.09684
2022-07-20 01:09:00+00:00,262.4398,18.8,12.01,47.84626,-54.09684
2022-07-20 01:19:01+00:00,268.9514,18.8,12.01,47.84626,-54.09684
2022-07-20 01:29:01+00:00,270.7531,18.8,12.01,47.84626,-54.09684
2022-07-20 01:39:01+00:00,277.7064,18.8,12.01,47.84626,-54.09684
2022-07-20 01:49:01+00:00,287.5264,18.8,12.01,47.84626,-54.09684
2022-07-20 01:59:01+00:00,289.403,18.8,12.01,47.84626,-54.09684
2022-07-20 02:09:01+00:00,292.5297,18.8,12.01,47.84626,-54.09684
2022-07-20 02:19:01+00:00,299.6564,18.8,12.01,47.84626,-54.09684
2022-07-20 02:29:01+00:00,308.9513,18.8,12.01,47.84626,-54.09684
2022-07-20 02:39:01+00:00,315.553,18.8,12.01,47.84626,-54.09684
2022-07-20 02:49:01+00:00,321.5246,18.8,12.01,47.84626,-54.09684
2022-07-20 02:59:01+00:00,324.1964,18.8,12.01,47.84626,-54.09684
2022-07-20 03:09:01+00:00,328.0013,18.8,12.01,47.84626,-54.09684
2022-07-20 03:19:01+00:00,334.8313,18.8,12.01,47.84626,-54.09684
2022-07-20 03:29:01+00:00,339.1679,18.8,12.01,47.84626,-54.09684
2022-07-20 03:39:01+00:00,343.5746,18.77,12.01,47.84626,-54.09684
2022-07-20 03:49:01+00:00,347.2946,18.7,12.01,47.84626,-54.09684
2022-07-20 03:59:01+00:00,352.2562,18.7,12.01,47.84626,-54.09684
2022-07-20 04:09:01+00:00,354.4463,18.7,12.01,47.84626,-54.09684
2022-07-20 04:19:00+00:00,356.2297,18.7,12.01,47.84626,-54.09684
2022-07-20 04:29:00+00:00,359.3229,18.7,12.01,47.84626,-54.09684
2022-07-20 04:39:00+00:00,360.9896,18.7,12.01,47.84626,-54.09684
2022-07-20 04:49:00+00:00,359.8213,18.7,12.01,47.84626,-54.09684
2022-07-20 04:59:00+00:00,362.3413,18.7,12.01,47.84626,-54.09684
2022-07-20 05:09:00+00:00,360.9997,18.7,12.01,47.84626,-54.09684
2022-07-20 05:19:00+00:00,359.348,18.7,12.01,47.84626,-54.09684
2022-07-20 05:29:00+00:00,356.7763,18.7,12.01,47.84626,-54.09684
2022-07-20 05:39:00+00:00,353.8196,18.7,12.01,47.84626,-54.09684
2022-07-20 05:49:00+00:00,350.5497,18.7,12.01,47.84626,-54.09684
2022-07-20 05:59:00+00:00,347.6647,18.7,12.01,47.84626,-54.09684
2022-07-20 06:09:00+00:00,345.0029,18.7,12.01,47.84626,-54.09684
2022-07-20 06:19:01+00:00,342.973,18.7,11.93,47.84626,-54.09684
2022-07-20 06:29:01+00:00,338.9647,18.7,11.93,47.84626,-54.09684
2022-07-20 06:39:01+00:00,332.4980000000001,18.7,11.93,47.84626,-54.09684
2022-07-20 06:49:01+00:00,327.5347,18.68,11.93,47.84626,-54.09684
2022-07-20 06:59:01+00:00,324.368,18.63,11.93,47.84626,-54.09684
2022-07-20 07:09:01+00:00,317.5214,18.6,11.93,47.84626,-54.09684
2022-07-20 07:19:00+00:00,306.468,18.63,12.01,47.84626,-54.09684
2022-07-20 07:29:00+00:00,300.2581,18.65,12.01,47.84626,-54.09684
2022-07-20 07:39:00+00:00,296.2914,18.67,12.01,47.84626,-54.09684
2022-07-20 07:49:00+00:00,286.173,18.68,12.01,47.84626,-54.09684
2022-07-20 07:59:00+00:00,275.608,18.69,12.01,47.84626,-54.09684
2022-07-20 08:09:00+00:00,271.4097,18.7,12.01,47.84626,-54.09684
2022-07-20 08:19:00+00:00,262.7097,18.7,12.01,47.84626,-54.09684
2022-07-20 08:29:00+00:00,249.4564,18.7,12.01,47.84626,-54.09684
2022-07-20 08:39:00+00:00,242.0581,18.7,12.01,47.84626,-54.09684
2022-07-20 08:49:00+00:00,238.2481,18.7,12.01,47.84626,-54.09684
2022-07-20 08:59:00+00:00,230.1548,18.7,12.01,47.84626,-54.09684
2022-07-20 09:09:00+00:00,225.2314,18.7,12.01,47.84626,-54.09684
2022-07-20 09:19:01+00:00,225.1364,18.7,11.93,47.84626,-54.09684
2022-07-20 09:29:01+00:00,221.0298,18.69,11.93,47.84626,-54.09684
2022-07-20 09:39:01+00:00,215.7497,18.7,11.93,47.84626,-54.09684
2022-07-20 09:49:01+00:00,214.3965,18.7,11.93,47.84626,-54.09684
2022-07-20 09:59:01+00:00,215.1431,18.7,11.93,47.84626,-54.09684
2022-07-20 10:09:01+00:00,211.5631,18.7,11.93,47.84626,-54.09684
2022-07-20 10:19:01+00:00,213.5765,18.7,11.93,47.84626,-54.09684
2022-07-20 10:29:01+00:00,218.6514,18.7,11.93,47.84626,-54.09684
2022-07-20 10:39:01+00:00,217.5448,18.69,11.93,47.84626,-54.09684
2022-07-20 10:49:01+00:00,218.2164,18.69,11.93,47.84626,-54.09684
2022-07-20 10:59:01+00:00,228.9264,18.69,11.93,47.84626,-54.09684
2022-07-20 11:09:01+00:00,236.8481,18.69,11.93,47.84626,-54.09684
2022-07-20 11:19:01+00:00,235.3165,18.69,11.93,47.84626,-54.09684
2022-07-20 11:29:01+00:00,237.1731,18.69,11.93,47.84626,-54.09684
2022-07-20 11:39:01+00:00,243.9198,18.69,11.93,47.84626,-54.09684
2022-07-20 11:49:01+00:00,246.5131,18.69,11.93,47.84626,-54.09684
2022-07-20 11:59:01+00:00,246.1931,18.7,11.93,47.84626,-54.09684
2022-07-20 12:09:01+00:00,247.1681,18.7,11.93,47.84626,-54.09684
2022-07-20 12:19:00+00:00,247.8314,18.7,11.93,47.84626,-54.09684
2022-07-20 12:29:00+00:00,243.5681,18.7,11.93,47.84626,-54.09684
2022-07-20 12:39:00+00:00,240.8848,18.69,11.93,47.84626,-54.09684
2022-07-20 12:49:00+00:00,245.9548,18.69,11.93,47.84626,-54.09684
2022-07-20 12:59:00+00:00,248.928,18.69,11.93,47.84626,-54.09684
2022-07-20 13:09:00+00:00,245.3481,18.69,11.93,47.84626,-54.09684
2022-07-20 13:19:01+00:00,248.7415,18.69,12.01,47.84626,-54.09684
2022-07-20 13:29:01+00:00,261.3031,18.69,12.01,47.84626,-54.09684
2022-07-20 13:39:01+00:00,266.3247,18.69,12.01,47.84626,-54.09684
2022-07-20 13:49:01+00:00,265.1764,18.69,12.01,47.84626,-54.09684
2022-07-20 13:59:01+00:00,273.9714,18.7,12.01,47.84626,-54.09684
2022-07-20 14:09:01+00:00,284.5897,18.69,12.01,47.84626,-54.09684
2022-07-20 14:19:01+00:00,287.7347,18.7,12.01,47.84626,-54.09684
2022-07-20 14:29:01+00:00,287.4131,18.7,12.01,47.84626,-54.09684
2022-07-20 14:39:01+00:00,295.1063,18.69,12.01,47.84626,-54.09684
2022-07-20 14:49:01+00:00,302.3397,18.67,12.01,47.84626,-54.09684
2022-07-20 14:59:01+00:00,307.8264,18.62,12.01,47.84626,-54.09684
2022-07-20 15:09:01+00:00,310.8679,18.6,12.01,47.84626,-54.09684
2022-07-20 15:19:00+00:00,317.6346,18.61,12.09,47.84626,-54.09684
2022-07-20 15:29:00+00:00,323.8663,18.61,12.09,47.84626,-54.09684
2022-07-20 15:39:00+00:00,326.5663,18.62,12.09,47.84626,-54.09684
2022-07-20 15:49:00+00:00,327.9963,18.64,12.09,47.84626,-54.09684
2022-07-20 15:59:00+00:00,330.4763,18.65,12.09,47.84626,-54.09684
2022-07-20 16:09:00+00:00,333.1096,18.63,12.09,47.84626,-54.09684
2022-07-20 16:19:00+00:00,333.7480000000001,18.62,12.09,47.84626,-54.09684
2022-07-20 16:29:00+00:00,335.4697,18.61,12.09,47.84626,-54.09684
2022-07-20 16:39:00+00:00,339.9813,18.63,12.09,47.84626,-54.09684
2022-07-20 16:49:00+00:00,343.3613,18.64,12.09,47.84626,-54.09684
2022-07-20 16:59:00+00:00,344.9813,18.65,12.09,47.84626,-54.09684
2022-07-20 17:09:00+00:00,344.473,18.65,12.09,47.84626,-54.09684
2022-07-20 17:19:01+00:00,347.43800000000016,18.66,12.09,47.84626,-54.09684
2022-07-20 17:29:01+00:00,351.6563,18.68,12.09,47.84626,-54.09684
2022-07-20 17:39:01+00:00,351.4663,18.7,12.09,47.84626,-54.09684
2022-07-20 17:49:01+00:00,347.7629,18.7,12.09,47.84626,-54.09684
2022-07-20 17:59:01+00:00,350.673,18.7,12.09,47.84626,-54.09684
2022-07-20 18:09:01+00:00,350.6697,18.7,12.09,47.84626,-54.09684
2022-07-20 18:19:01+00:00,344.7446,18.7,12.09,47.84626,-54.09684
2022-07-20 18:29:01+00:00,338.7113,18.7,12.09,47.84626,-54.09684
2022-07-20 18:39:01+00:00,338.7346,18.7,12.09,47.84626,-54.09684
2022-07-20 18:49:01+00:00,335.9396,18.7,12.09,47.84626,-54.09684
2022-07-20 18:59:01+00:00,329.8696,18.69,12.09,47.84626,-54.09684
2022-07-20 19:09:01+00:00,326.2513,18.68,12.09,47.84626,-54.09684
2022-07-20 19:19:01+00:00,322.5363,18.67,12.01,47.84626,-54.09684
2022-07-20 19:29:01+00:00,318.3464,18.6,12.01,47.84626,-54.09684
2022-07-20 19:39:01+00:00,313.8696,18.6,12.01,47.84626,-54.09684
2022-07-20 19:49:01+00:00,311.2729,18.6,12.01,47.84626,-54.09684
2022-07-20 19:59:01+00:00,306.1113,18.6,12.01,47.84626,-54.09684
2022-07-20 20:09:01+00:00,297.9564,18.6,12.01,47.84626,-54.09684
2022-07-20 20:19:01+00:00,292.3314,18.6,12.01,47.84626,-54.09684
2022-07-20 20:29:01+00:00,285.5797,18.6,12.01,47.84626,-54.09684
2022-07-20 20:39:01+00:00,276.7415,18.6,12.01,47.84626,-54.09684
2022-07-20 20:49:01+00:00,270.693,18.6,12.01,47.84626,-54.09684
2022-07-20 20:59:01+00:00,265.3447,18.61,12.01,47.84626,-54.09684
2022-07-20 21:09:01+00:00,256.5447,18.62,12.01,47.84626,-54.09684
2022-07-20 21:19:01+00:00,247.8881,18.65,12.01,47.84626,-54.09684
2022-07-20 21:29:01+00:00,245.9747,18.68,12.01,47.84626,-54.09684
2022-07-20 21:39:01+00:00,243.1881,18.69,12.01,47.84626,-54.09684
2022-07-20 21:49:01+00:00,235.8798,18.7,12.01,47.84626,-54.09684
2022-07-20 21:59:01+00:00,232.0797,18.7,12.01,47.84626,-54.09684
2022-07-20 22:09:01+00:00,231.5697,18.7,12.01,47.84626,-54.09684
2022-07-20 22:19:00+00:00,227.8681,18.71,12.01,47.84626,-54.09684
2022-07-20 22:29:00+00:00,223.8581,18.71,12.01,47.84626,-54.09684
2022-07-20 22:39:00+00:00,226.6515,18.71,12.01,47.84626,-54.09684
2022-07-20 22:49:00+00:00,229.2848,18.7,12.01,47.84626,-54.09684
2022-07-20 22:59:00+00:00,228.2547,18.7,12.01,47.84626,-54.09684
2022-07-20 23:09:00+00:00,230.2648,18.7,12.01,47.84626,-54.09684
2022-07-20 23:19:01+00:00,235.0065,18.7,11.93,47.84626,-54.09684
2022-07-20 23:29:01+00:00,236.3814,18.7,11.93,47.84626,-54.09684
2022-07-20 23:39:01+00:00,237.6697,18.7,11.93,47.84626,-54.09684
2022-07-20 23:49:01+00:00,241.7931,18.7,11.93,47.84626,-54.09684
2022-07-20 23:59:01+00:00,243.593,18.7,11.93,47.84626,-54.09684
